Weather History for CYMX - July, 2013

Change the Weather History Date:

Friday, July 19, 2013

  Actual Average Record
Temperature  
Mean Temperature 78 °F -  
Max Temperature 87 °F 75 °F 89 °F (2005)
Min Temperature 68 °F 57 °F 48 °F (2012)
Cooling Degree Days 12    
Growing Degree Days 28 (Base 50)    
Moisture  
Dew Point 71 °F    
Average Humidity 94    
Maximum Humidity 100    
Minimum Humidity 70    
Precipitation  
Precipitation 0.00 in - - ()
Sea Level Pressure  
Sea Level Pressure 29.70 in    
Wind  
Wind Speed 7 mph ()    
Max Wind Speed 17 mph    
Max Gust Speed 45 mph    
Visibility 8.9 miles    
Events Fog , Rain , Thunderstorm , Tornado    
Averages and records for this station are not official NWS values.
T = Trace of Precipitation, MM = Missing Value Source: Averaged Metar Reports

Daily Weather History Graph

Daily Weather History Graph

Search for Another Location

Airport or City:

Trip Planner

Search our weather history database for the weather conditions in past years. The results will help you decide how hot, cold, wet, or windy it might be!

Date:

Astronomy

Jul. 19, 2013 Rise Set
Actual Time 5:25 AM EDT 8:38 PM EDT
Civil Twilight 4:49 AM EDT 9:14 PM EDT
Nautical Twilight 4:02 AM EDT 10:01 PM EDT
Astronomical Twilight 3:04 AM EDT 10:59 PM EDT
Moon 5:38 PM EDT (7/19) 2:05 AM EDT (7/19)
Length of Visible Light 16h 25m
Length of Day
15h 13m
Waxing Gibbous, 86% of the Moon is Illuminated
Jul 19
Waxing Gibbous
Jul 22
Full
Jul 29
Last Quarter
Aug 6
New
Aug 14
First Quarter

Hourly Weather History & Observations

Time (EDT) Temp. Heat Index Dew Point Humidity Pressure Visibility Wind Dir Wind Speed Gust Speed Precip Events Conditions
12:00 AM 71.6 °F - 69.8 °F 94% 29.90 in 15.0 mi West 3.5 mph - N/A   Mostly Cloudy
1:00 AM 69.8 °F - 69.8 °F 100% 29.87 in 10.0 mi SSW 5.8 mph - N/A   Mostly Cloudy
2:00 AM 69.8 °F - 69.8 °F 100% 29.84 in 10.0 mi South 3.5 mph - N/A Fog Mostly Cloudy
2:43 AM 69.8 °F - 69.8 °F 100% 29.82 in 8.0 mi SSW 4.6 mph - N/A Fog Overcast
3:00 AM 69.8 °F - 69.8 °F 100% 29.81 in 8.0 mi SSW 4.6 mph - N/A   Overcast
4:00 AM 69.8 °F - 69.8 °F 100% 29.78 in 15.0 mi SW 4.6 mph - N/A   Mostly Cloudy
5:00 AM 69.8 °F - 69.8 °F 100% 29.76 in 15.0 mi SSW 3.5 mph - N/A Thunderstorm Thunderstorm
5:33 AM 69.8 °F - 69.8 °F 100% 29.79 in 5.0 mi NW 5.8 mph - N/A Rain , Thunderstorm Light Thunderstorms and Rain
5:39 AM 69.8 °F - 69.8 °F 100% 29.80 in 5.0 mi NNW 11.5 mph 18.4 mph N/A Rain , Thunderstorm Light Thunderstorms and Rain
6:00 AM 71.6 °F - 71.6 °F 100% 29.78 in 5.0 mi Calm Calm - N/A Rain , Thunderstorm Light Thunderstorms and Rain
6:06 AM 71.6 °F - 69.8 °F 94% 29.77 in 1.2 mi WSW 2.3 mph - N/A Rain , Thunderstorm Heavy Thunderstorms and Rain
6:23 AM 69.8 °F - 69.8 °F 100% 29.75 in 10.0 mi SSW 8.1 mph 19.6 mph N/A Rain , Thunderstorm Light Thunderstorms and Rain
6:38 AM 69.8 °F - 69.8 °F 100% 29.75 in 1.5 mi WSW 5.8 mph - N/A Rain , Thunderstorm Thunderstorms and Rain
6:51 AM 69.8 °F - 69.8 °F 100% 29.75 in 10.0 mi West 5.8 mph - N/A Rain Light Rain Showers
7:00 AM 69.8 °F - 69.8 °F 100% 29.74 in 8.0 mi SW 6.9 mph - N/A Rain Light Rain Showers
8:00 AM 71.6 °F - 71.6 °F 100% 29.73 in 5.0 mi SSW 5.8 mph - N/A   Overcast
9:00 AM 75.2 °F - 75.2 °F 100% 29.70 in 5.0 mi SSW 9.2 mph - N/A   Overcast
10:00 AM 78.8 °F - 75.2 °F 89% 29.66 in 6.0 mi SW 10.4 mph - N/A   Overcast
11:00 AM 82.4 °F 90.9 °F 77.0 °F 84% 29.65 in 6.0 mi SW 16.1 mph 24.2 mph N/A   Mostly Cloudy
12:00 PM 84.2 °F 94.1 °F 77.0 °F 79% 29.65 in 15.0 mi SW 12.7 mph 25.3 mph N/A   Mostly Cloudy
1:00 PM 86.0 °F 96.9 °F 77.0 °F 74% 29.62 in 15.0 mi SW 12.7 mph 29.9 mph N/A   Mostly Cloudy
2:00 PM 87.8 °F 99.7 °F 77.0 °F 70% 29.57 in 15.0 mi SW 17.3 mph 28.8 mph N/A   Mostly Cloudy
3:00 PM 87.8 °F 99.7 °F 77.0 °F 70% 29.56 in 15.0 mi SW 17.3 mph 31.1 mph N/A   Mostly Cloudy
3:18 PM 86.0 °F 95.1 °F 75.2 °F 70% 29.59 in 1.0 mi West 15.0 mph 32.2 mph N/A Rain Heavy Rain Showers
3:26 PM 73.4 °F - 68.0 °F 83% 29.62 in 1.5 mi WSW 17.3 mph 44.9 mph N/A Rain Rain Showers
3:43 PM 69.8 °F - 66.2 °F 88% 29.62 in 4.0 mi SW 13.8 mph 23.0 mph N/A Rain Light Rain Showers
3:50 PM 68.0 °F - 66.2 °F 94% 29.62 in 2.0 mi SSW 16.1 mph 24.2 mph N/A Rain , Tornado Unknown
4:00 PM 68.0 °F - 68.0 °F 100% 29.63 in 3.0 mi SW 16.1 mph 27.6 mph N/A Rain , Thunderstorm Light Thunderstorms and Rain
5:00 PM 69.8 °F - 69.8 °F 100% 29.61 in 6.0 mi SSW 10.4 mph 20.7 mph N/A Rain , Thunderstorm Light Thunderstorms and Rain
6:00 PM 69.8 °F - 69.8 °F 100% 29.62 in 10.0 mi SW 5.8 mph - N/A Rain , Thunderstorm Light Thunderstorms and Rain
7:00 PM 71.6 °F - 69.8 °F 94% 29.62 in 10.0 mi SSW 12.7 mph 20.7 mph N/A Rain Light Rain Showers
8:00 PM 69.8 °F - 68.0 °F 94% 29.63 in 15.0 mi SW 12.7 mph 23.0 mph N/A   Mostly Cloudy
8:28 PM 69.8 °F - 68.0 °F 94% 29.62 in 15.0 mi SW 6.9 mph - N/A   Mostly Cloudy
9:00 PM 68.0 °F - 68.0 °F 100% 29.63 in 15.0 mi WSW 6.9 mph - N/A   Overcast
10:00 PM 68.0 °F - 68.0 °F 100% 29.64 in 15.0 mi WSW 6.9 mph - N/A   Mostly Cloudy
11:00 PM 68.0 °F - 68.0 °F 100% 29.63 in 15.0 mi West 4.6 mph - N/A   Mostly Cloudy